Weather History for Bagotville, QC

Change the Weather History Date:

Tuesday, July 30, 2013

  Actual Average Record
Temperature  
Mean Temperature 62 °F -  
Max Temperature 72 °F 72 °F 90 °F (2012)
Min Temperature 51 °F 51 °F 47 °F (2014)
Degree Days  
Heating Degree Days 4    
Growing Degree Days 12 (Base 50)    
Moisture  
Dew Point 57 °F    
Average Humidity 88    
Maximum Humidity 100    
Minimum Humidity 63    
Precipitation  
Precipitation 0.08 in 0.13 in - ()
Sea Level Pressure  
Sea Level Pressure 30.01 in    
Wind  
Wind Speed 4 mph ()    
Max Wind Speed 15 mph    
Max Gust Speed -    
Visibility 9.5 miles    
Events Fog , Rain , Thunderstorm    
Averages and records for this station are not official NWS values.
T = Trace of Precipitation, MM = Missing Value Source: Averaged Metar Reports

Daily Weather History Graph

Daily Weather History Graph

Search for Another Location

Airport:

Trip Planner

Search our weather history database for the weather conditions in past years. The results will help you decide how hot, cold, wet, or windy it might be!

Date:

Astronomy

Jul. 30, 2013 Rise Set
Actual Time 5:16 AM EDT 8:23 PM EDT
Civil Twilight 4:39 AM EDT 9:00 PM EDT
Nautical Twilight 3:51 AM EDT 9:48 PM EDT
Astronomical Twilight 2:50 AM EDT 10:47 PM EDT
Moon No Moon Rise 2:38 PM EDT (7/30)
Length of Visible Light 16h 20m
Length of Day
15h 06m
Last Quarter, 41% of the Moon is Illuminated
Jul 30
Last Quarter
Aug 6
New
Aug 14
First Quarter
Aug 20
Full
Aug 28
Last Quarter

Hourly Weather History & Observations

Time (EDT) Temp. Dew Point Humidity Pressure Visibility Wind Dir Wind Speed Gust Speed Precip Events Conditions
12:00 AM 59.0 °F 59.0 °F 100% 30.03 in 0.1 mi South 4.6 mph - N/A Fog Fog
1:00 AM 59.0 °F 59.0 °F 100% 30.03 in 0.1 mi ENE 2.3 mph - N/A Fog Fog
2:00 AM 58 °F 58 °F 98% 30.02 in 0 mi East 3.5 mph - - Fog Heavy Fog
2:00 AM 57.2 °F 57.2 °F 100% 30.02 in 0.1 mi East 15.0 mph - N/A Fog Fog
3:00 AM 57.2 °F 57.2 °F 100% 30.01 in 0.1 mi ESE 2.3 mph - N/A Fog Fog
4:00 AM 55.4 °F 55.4 °F 100% 30.01 in 4.0 mi SSE 3.5 mph - N/A   Partly Cloudy
5:00 AM 55.4 °F 53.6 °F 94% 30.02 in 25.0 mi South 2.3 mph - N/A   Partly Cloudy
5:33 AM - - N/A% - 0.2 mi Calm Calm - N/A Fog Fog
5:45 AM - - N/A% - 25.0 mi SSW 2.3 mph - N/A Fog Patches of Fog
6:00 AM 51.8 °F 51.8 °F 100% 30.03 in 25.0 mi SW 2.3 mph - N/A Fog Patches of Fog
6:27 AM - - N/A% - 20.0 mi SW 4.6 mph - N/A   Scattered Clouds
7:00 AM 55.4 °F 55.4 °F 100% 30.04 in 25.0 mi Calm Calm - N/A   Mostly Cloudy
8:00 AM 57 °F 56 °F 95% 30.04 in 25 mi Calm Calm - -   Partly Cloudy
8:00 AM 57.2 °F 55.4 °F 94% 30.04 in 25.0 mi East 2.3 mph - N/A   Mostly Cloudy
8:14 AM - - N/A% - 15.0 mi East 3.5 mph - N/A Fog Patches of Fog
9:00 AM 59.0 °F 57.2 °F 94% 30.04 in 25.0 mi SE 4.6 mph - N/A Fog Patches of Fog
10:00 AM 60.8 °F 57.2 °F 88% 30.04 in 25.0 mi ESE 3.5 mph - N/A Fog Patches of Fog
11:00 AM 62.6 °F 57.2 °F 82% 30.03 in 25.0 mi East 4.6 mph - N/A   Mostly Cloudy
12:00 PM 66.2 °F 59.0 °F 78% 30.00 in 25.0 mi SE 3.5 mph - N/A   Scattered Clouds
1:00 PM 68.0 °F 57.2 °F 68% 29.98 in 25.0 mi Calm Calm - N/A   Mostly Cloudy
1:11 PM - - N/A% - 25.0 mi Calm Calm - N/A Thunderstorm Thunderstorm
1:51 PM - - N/A% - 25.0 mi ESE 3.5 mph - N/A Rain , Thunderstorm Light Thunderstorms and Rain
2:00 PM 68 °F 58 °F 63% 29.97 in 25 mi SSE 2.3 mph - - Rain , Thunderstorm Thunderstorms and Rain
2:00 PM 68.0 °F 59.0 °F 73% 29.97 in 25.0 mi South 4.6 mph - N/A Rain , Thunderstorm Light Thunderstorms and Rain
3:00 PM 60.8 °F 57.2 °F 88% 30.01 in 4.0 mi West 6.9 mph - N/A Rain , Thunderstorm Light Thunderstorms and Rain
4:00 PM 60.8 °F 57.2 °F 88% 30.03 in 8.0 mi SSW 6.9 mph - N/A Rain Light Rain Showers
4:40 PM - - N/A% - 10.0 mi South 6.9 mph - N/A   Mostly Cloudy
5:00 PM 62.6 °F 57.2 °F 82% 30.01 in 12.0 mi South 4.6 mph - N/A   Mostly Cloudy
6:00 PM 62.6 °F 57.2 °F 82% 30.00 in 12.0 mi SSW 5.8 mph - N/A   Mostly Cloudy
7:00 PM 62.6 °F 57.2 °F 82% 30.00 in 20.0 mi WSW 4.6 mph - N/A   Mostly Cloudy
8:00 PM 62 °F 57 °F 79% 30.00 in 19 mi West 6.9 mph - -   Partly Cloudy
8:00 PM 62.6 °F 57.2 °F 82% 30.00 in 20.0 mi WSW 6.9 mph - N/A   Mostly Cloudy
9:00 PM 60.8 °F 55.4 °F 82% 30.01 in 15.0 mi SW 6.9 mph - N/A   Mostly Cloudy
10:00 PM 59.0 °F 55.4 °F 88% 30.01 in 15.0 mi WSW 6.9 mph - N/A   Scattered Clouds
11:00 PM 57.2 °F 55.4 °F 94% 30.00 in 15.0 mi SW 5.8 mph - N/A   Scattered Clouds